SITRO-AIS 28

Last updated on Sun Apr 12 2026 00:03:56 GMT+0000 (Coordinated Universal Time)

1 59071U 24039U 26101.52613045 .00005182 00000+0 40623-3 0 9999 2 59071 95.3927 189.4942 0144811 199.3985 160.1696 14.93213199114792
UTC large
Height (km)
Speed (km/s)
/
Latitude / Longitude
Inclination (degrees)
Orbital Period (minutes)
Azimuth
Elevation
Range (km)
Doppler Factor

Next 0 passes for location: London (51.5072 / 0.1276)

Sorry there are no passes over London.
SITRO-AIS 28